Wind_Speed
50 48 53 54 55 56 56 58 59 58 59 60 62 64 68 71 74 73 66 61 66 63 59 64 72 59 52 50 38 33 21 25 27 26 28 32 30 32 33 33 32 32 34
53 52 51 54 55 55 55 55 54 55 56 57 58 58 62 69 75 75 74 70 69 66 63 59 54 54 48 49 39 31 18 26 31 28 30 33 36 36 36 35 31 30 26
51 52 54 55 53 48 49 51 52 52 51 51 52 51 49 52 62 70 74 72 71 70 67 63 60 68 46 43 35 15 24 31 32 35 32 32 34 30 39 24 26 24 24
56 56 56 48 46 50 52 52 54 55 53 51 53 53 55 56 59 61 65 68 77 72 71 70 55 39 39 38 22 20 27 31 33 35 34 32 32 35 34 31 28 27 28
59 56 51 53 54 53 56 60 63 63 60 57 57 56 60 57 56 53 57 63 71 71 66 56 62 70 48 29 21 24 28 32 33 35 35 36 28 33 37 28 29 30 31
55 59 61 61 59 56 51 50 54 62 68 64 60 60 58 55 52 42 58 40 64 62 56 65 60 50 63 26 26 26 30 33 33 35 38 36 34 31 33 34 32 32 32
61 60 55 53 51 52 51 51 54 52 59 65 64 62 61 51 45 41 35 15 18 37 51 57 58 36 29 29 27 32 34 33 29 30 31 33 32 29 32 36 33 33 34
54 53 53 54 54 55 56 56 57 57 53 52 64 63 61 51 44 39 41 18 15 16 36 49 49 39 31 30 29 31 30 30 27 25 26 29 30 33 34 36 35 33 32
53 55 58 59 57 58 57 56 56 57 51 49 57 66 59 49 44 39 35 20 10 9 12 18 24 26 29 29 29 28 28 24 20 18 20 23 26 28 35 35 32 30 31
56 58 56 57 57 58 51 53 54 53 44 43 50 63 55 47 39 33 34 33 21 16 19 20 27 23 26 32 28 26 25 23 19 19 23 23 22 27 33 30 29 30 32
48 49 50 56 53 52 57 48 50 48 40 39 43 56 51 45 33 28 39 37 35 24 18 16 18 24 33 28 28 27 28 22 16 22 22 21 19 21 26 27 28 28 31
48 54 53 51 53 45 45 40 43 40 36 37 38 49 47 43 35 29 37 40 37 25 25 16 18 26 31 28 30 28 26 21 23 21 19 19 19 21 24 26 28 28 27
54 52 46 40 39 37 37 31 32 29 29 31 34 46 45 44 41 30 30 39 40 36 30 27 24 24 25 29 28 29 25 24 26 21 17 18 19 23 25 26 25 24 23
45 45 43 41 35 34 30 26 26 25 24 31 34 46 45 50 43 35 35 36 36 37 34 26 27 30 26 29 31 28 30 30 29 19 16 17 18 20 20 20 20 22 22
43 44 40 37 31 27 26 26 22 23 22 26 38 47 46 48 43 44 40 37 37 37 35 31 29 33 33 29 29 29 30 29 24 18 15 15 17 16 16 18 19 21 21
40 41 38 31 26 22 20 20 19 20 19 21 36 49 44 49 45 46 47 42 40 40 41 40 34 32 32 33 33 29 29 29 26 19 15 15 16 15 16 18 18 19 15
35 36 36 30 21 18 20 14 22 18 20 18 34 48 44 47 43 45 43 39 49 46 44 42 42 38 39 38 37 33 31 30 27 20 16 17 18 17 16 18 18 20 21
36 36 34 31 24 18 16 11 22 20 21 19 27 40 44 41 44 44 43 49 39 41 43 40 36 39 39 36 37 36 34 30 26 20 19 18 19 17 17 18 20 24 26
35 36 31 28 26 19 15 13 11 24 22 28 28 31 37 39 41 42 40 40 43 32 31 33 31 33 40 34 30 28 32 27 24 22 20 20 19 16 19 19 20 12 7
37 34 31 28 25 20 15 15 14 20 26 27 31 34 34 35 35 38 44 42 42 34 31 28 31 33 37 33 30 27 27 23 24 22 21 19 18 18 18 25 21 11 14
41 39 39 30 24 19 13 14 16 18 27 29 28 30 35 37 35 34 39 43 38 37 34 32 31 29 28 28 29 25 25 25 22 22 20 17 17 17 20 29 14 20 26
43 45 43 33 24 19 8 3 10 21 19 24 32 28 30 31 33 35 37 41 43 41 38 32 26 26 28 29 28 27 25 23 19 18 18 15 15 22 19 9 19 22 31
41 45 42 42 29 25 21 9 12 22 19 18 21 33 29 30 29 28 31 38 44 42 35 30 27 28 31 35 29 27 25 20 17 18 16 15 18 23 13 15 25 28 19
42 42 44 42 42 30 27 20 19 19 16 17 17 29 28 30 27 25 27 34 39 39 34 29 29 31 36 33 30 28 24 19 18 16 14 15 22 6 21 22 30 19 20
47 43 45 44 42 42 29 25 18 14 15 15 17 19 30 26 23 21 24 30 36 38 31 29 32 37 35 32 30 25 20 18 15 15 15 15 10 14 26 28 14 22 22
40 43 44 47 42 43 42 29 23 21 18 17 18 19 30 28 23 19 24 32 37 37 34 35 39 40 36 30 25 21 19 15 13 14 16 13 14 27 27 16 16 19 19
Wind_Direction
279 278 277 278 278 276 276 275 273 270 268 266 263 260 260 260 260 261 259 259 264 261 260 260 263 252 266 246 234 242 243 257 260 263 264 266 264 263 265 255 255 257 251
280 279 278 279 279 279 277 273 270 269 268 268 267 265 262 258 258 258 257 254 253 257 256 253 235 222 252 255 226 237 256 265 267 269 268 270 277 283 280 270 252 258 263
281 283 286 286 286 279 271 267 266 265 263 263 263 261 259 262 262 260 257 250 249 249 254 257 256 254 249 245 234 248 258 264 270 272 275 275 280 279 271 270 264 266 270
289 289 289 287 280 278 277 275 273 272 271 266 262 260 262 264 264 267 262 252 249 245 247 251 246 253 254 243 234 234 247 256 261 268 272 269 269 281 271 289 267 273 278
291 291 291 291 286 280 276 276 275 273 270 268 262 260 263 267 268 275 259 252 249 242 243 246 244 247 251 240 236 236 247 252 261 265 269 271 258 266 279 264 258 262 270
293 296 296 293 290 286 283 280 278 274 267 261 260 260 261 263 268 271 260 258 253 220 227 244 249 248 245 249 241 238 238 250 256 265 270 270 268 257 255 252 249 254 266
293 292 291 291 288 286 283 287 292 284 269 261 250 253 258 260 264 264 239 223 226 215 225 224 236 240 240 242 242 238 244 250 249 253 261 267 266 254 244 244 241 247 256
293 293 294 294 293 289 288 291 292 290 277 262 245 243 251 256 257 256 252 204 251 255 200 218 229 238 240 243 238 242 236 235 238 249 259 259 257 257 239 237 242 241 250
297 297 295 293 290 288 287 288 288 288 276 259 244 238 244 250 249 254 222 217 231 211 211 221 226 237 234 237 231 231 228 226 237 259 267 265 259 251 239 240 245 245 249
297 296 295 296 294 288 283 282 285 287 270 256 242 234 236 241 242 237 232 228 224 243 241 243 250 252 234 231 239 238 228 225 238 261 266 263 253 243 241 245 248 243 241
300 302 303 306 299 295 288 278 284 284 260 248 238 228 227 231 233 215 232 213 226 243 231 237 225 223 218 228 221 219 217 224 244 265 260 256 254 248 249 248 243 243 249
310 307 306 300 300 293 285 274 282 275 254 241 233 221 218 219 212 211 224 220 220 233 214 221 222 210 214 216 218 225 227 236 248 256 253 250 245 243 243 244 243 240 238
320 317 312 312 309 301 288 270 279 270 254 235 227 216 211 212 206 202 216 213 220 214 210 213 207 225 212 208 218 221 224 236 252 250 241 239 237 235 236 235 234 234 236
317 313 309 308 303 301 293 260 271 261 243 234 221 210 206 208 203 196 197 204 203 203 209 212 207 221 216 205 215 223 227 240 250 241 229 235 236 237 237 232 230 235 239
324 328 318 310 311 310 295 254 265 248 247 232 212 209 204 205 200 193 197 202 203 205 201 204 201 212 210 210 215 222 228 236 239 237 230 233 238 235 233 230 238 238 252
331 335 330 313 308 315 304 259 252 236 242 230 208 207 206 201 198 196 199 202 204 207 207 208 206 203 203 213 219 224 231 238 242 235 227 234 238 238 237 241 244 253 254
330 336 340 330 305 314 294 275 233 232 228 218 207 205 205 204 196 201 202 200 207 204 203 205 201 202 198 203 209 213 225 233 242 238 228 235 236 240 248 245 250 255 224
328 329 335 340 332 298 298 290 227 218 215 206 202 203 207 204 204 202 205 210 220 212 210 201 199 206 210 211 217 214 222 231 234 229 229 236 237 244 251 252 268 236 200
342 342 336 331 338 321 283 266 238 213 206 205 200 199 205 209 209 203 201 205 207 205 194 200 206 209 209 210 211 217 226 231 233 224 229 238 239 250 252 264 268 206 211
354 352 346 335 326 319 283 253 228 211 207 203 202 203 201 204 210 207 202 203 212 207 195 198 200 201 208 210 212 216 221 221 217 218 226 236 246 256 259 262 255 234 189
16 11 3 357 351 341 309 264 231 210 203 201 200 197 200 203 206 204 205 205 202 197 193 194 193 192 200 210 209 210 211 209 209 213 227 235 255 269 268 270 260 165 168
18 17 16 15 10 11 14 218 200 194 186 193 201 196 195 198 200 205 203 201 199 197 197 196 196 199 202 200 197 196 200 194 198 214 228 241 253 254 268 260 169 181 179
20 23 25 26 26 24 28 58 140 158 169 178 180 190 189 190 195 200 196 198 196 195 197 196 198 197 188 185 191 192 185 182 199 217 225 234 248 266 171 132 168 171 183
25 27 31 30 33 41 47 76 112 137 141 149 152 178 185 186 187 191 190 190 191 191 191 188 188 185 180 184 188 187 184 189 204 202 212 234 250 267 162 153 174 190 171
27 31 34 37 36 41 53 68 93 122 128 142 152 163 182 175 175 181 179 180 182 179 175 175 178 173 176 178 184 187 186 188 194 204 221 232 244 171 169 169 184 181 183
24 33 40 38 42 43 47 59 78 91 108 123 133 148 163 160 156 163 171 170 172 168 164 169 168 169 173 177 177 175 182 190 200 210 217 246 204 175 172 171 180 170 185
Height
5689 5687 5683 5681 5679 5676 5675 5673 5673 5676 5678 5680 5680 5679 5676 5672 5672 5674 5681 5688 5685 5688 5693 5692 5695 5697 5701 5702 5702 5710 5712 5719 5723 5725 5725 5724 5727 5728 5728 5729 5730 5732 5735
5672 5671 5669 5666 5663 5660 5657 5653 5654 5654 5657 5655 5656 5657 5657 5654 5651 5651 5658 5666 5668 5673 5677 5675 5672 5669 5688 5692 5694 5700 5703 5710 5711 5712 5715 5712 5718 5719 5722 5721 5722 5721 5721
5657 5654 5651 5648 5645 5643 5641 5638 5636 5636 5638 5638 5636 5637 5638 5639 5634 5631 5633 5639 5646 5653 5656 5662 5669 5671 5673 5682 5684 5683 5693 5697 5698 5700 5702 5704 5707 5706 5711 5713 5714 5714 5716
5637 5635 5633 5632 5629 5626 5623 5621 5620 5619 5621 5622 5620 5618 5617 5618 5617 5616 5616 5621 5622 5628 5636 5643 5657 5659 5664 5665 5667 5676 5683 5685 5688 5689 5690 5694 5699 5697 5704 5709 5708 5707 5709
5619 5617 5616 5614 5612 5611 5609 5603 5599 5598 5600 5603 5602 5600 5599 5599 5601 5599 5598 5598 5594 5606 5621 5626 5641 5646 5650 5652 5657 5666 5672 5673 5677 5678 5679 5684 5689 5693 5694 5697 5701 5700 5701
5605 5601 5597 5593 5588 5585 5584 5581 5579 5576 5576 5580 5584 5581 5581 5585 5585 5581 5579 5582 5572 5581 5600 5613 5623 5629 5636 5639 5649 5657 5661 5665 5667 5668 5669 5671 5676 5682 5686 5690 5692 5693 5695
5589 5584 5580 5576 5571 5566 5562 5559 5557 5556 5554 5554 5562 5564 5563 5570 5573 5570 5571 5568 5571 5581 5590 5596 5610 5616 5624 5630 5640 5647 5651 5656 5657 5658 5659 5661 5664 5669 5675 5678 5682 5685 5685
5572 5566 5559 5554 5550 5547 5544 5540 5536 5530 5529 5531 5537 5545 5546 5556 5560 5560 5560 5561 5570 5568 5576 5589 5599 5609 5616 5625 5632 5637 5643 5646 5649 5648 5649 5651 5654 5660 5663 5668 5671 5675 5677
5556 5548 5542 5537 5533 5527 5523 5520 5514 5509 5508 5510 5515 5523 5530 5539 5547 5548 5556 5562 5568 5575 5580 5588 5595 5601 5608 5617 5623 5628 5633 5636 5639 5639 5642 5645 5646 5650 5655 5659 5661 5666 5668
5540 5533 5525 5517 5510 5505 5503 5500 5495 5490 5489 5492 5495 5504 5515 5523 5535 5540 5545 5555 5562 5567 5573 5578 5583 5589 5595 5605 5613 5619 5625 5629 5633 5635 5637 5638 5640 5643 5646 5650 5654 5657 5660
5525 5517 5509 5501 5493 5486 5481 5479 5476 5473 5473 5476 5481 5489 5503 5513 5525 5533 5540 5546 5556 5564 5569 5572 5576 5585 5598 5603 5608 5614 5619 5624 5626 5629 5631 5633 5633 5635 5639 5642 5646 5650 5652
5513 5504 5494 5485 5476 5469 5463 5463 5461 5456 5458 5463 5468 5478 5491 5503 5515 5523 5531 5539 5548 5557 5563 5570 5577 5582 5589 5595 5601 5609 5615 5619 5621 5624 5626 5626 5627 5629 5632 5635 5639 5642 5646
5500 5489 5478 5469 5462 5454 5448 5448 5447 5444 5446 5452 5457 5470 5482 5494 5503 5511 5520 5531 5541 5550 5557 5565 5570 5578 5582 5587 5596 5604 5609 5613 5617 5619 5621 5620 5622 5623 5626 5630 5633 5636 5639
5488 5477 5466 5458 5451 5444 5437 5437 5437 5437 5439 5443 5449 5459 5473 5484 5494 5503 5513 5522 5531 5541 5549 5555 5565 5573 5578 5583 5590 5597 5602 5608 5611 5615 5614 5615 5617 5619 5621 5624 5627 5630 5632
5476 5464 5453 5445 5439 5433 5429 5428 5428 5430 5432 5434 5439 5451 5463 5476 5488 5498 5507 5516 5526 5535 5543 5552 5559 5565 5572 5579 5585 5590 5595 5601 5606 5609 5609 5611 5613 5616 5617 5619 5622 5624 5626
5468 5456 5444 5436 5430 5425 5421 5420 5422 5423 5426 5428 5432 5444 5456 5470 5482 5492 5500 5509 5518 5526 5534 5544 5553 5561 5567 5574 5580 5584 5588 5594 5598 5603 5605 5606 5609 5611 5614 5615 5617 5619 5621
5460 5450 5439 5429 5424 5419 5416 5414 5416 5418 5421 5424 5429 5438 5449 5461 5474 5486 5493 5501 5509 5518 5529 5538 5545 5555 5563 5568 5573 5577 5582 5588 5592 5598 5599 5601 5604 5607 5610 5611 5612 5613 5614
5453 5444 5435 5426 5417 5413 5411 5409 5409 5413 5417 5421 5426 5435 5444 5455 5467 5478 5487 5497 5505 5515 5523 5532 5542 5550 5557 5562 5568 5570 5575 5581 5587 5592 5594 5597 5600 5602 5605 5606 5606 5605 5608
5448 5438 5428 5420 5413 5408 5405 5405 5404 5408 5413 5418 5424 5432 5440 5450 5461 5473 5483 5492 5499 5508 5518 5527 5534 5541 5548 5556 5562 5565 5569 5575 5582 5587 5590 5592 5595 5598 5600 5601 5601 5602 5604
5444 5432 5422 5413 5406 5400 5398 5398 5399 5402 5408 5414 5420 5428 5437 5446 5456 5468 5478 5487 5495 5504 5511 5519 5528 5535 5543 5550 5554 5558 5565 5572 5578 5583 5585 5589 5591 5594 5596 5596 5595 5596 5599
5443 5432 5420 5407 5399 5393 5389 5389 5392 5396 5401 5409 5417 5425 5433 5441 5450 5460 5470 5481 5491 5498 5506 5516 5523 5530 5536 5543 5550 5556 5563 5569 5574 5578 5582 5586 5588 5590 5591 5590 5589 5593 5598
5445 5434 5422 5410 5401 5393 5388 5386 5388 5392 5398 5405 5414 5423 5431 5439 5446 5454 5462 5472 5484 5493 5502 5509 5517 5525 5532 5540 5548 5554 5561 5566 5571 5575 5580 5583 5586 5587 5586 5587 5590 5594 5599
5450 5439 5427 5416 5406 5398 5391 5386 5387 5394 5400 5405 5411 5421 5430 5437 5443 5450 5458 5467 5477 5488 5498 5507 5516 5522 5530 5539 5546 5552 5558 5563 5568 5573 5575 5579 5581 5581 5581 5585 5590 5595 5597
5456 5446 5434 5425 5415 5406 5400 5396 5396 5401 5405 5410 5414 5420 5429 5436 5443 5450 5457 5464 5474 5485 5495 5506 5514 5521 5530 5538 5544 5550 5555 5561 5566 5570 5573 5576 5576 5576 5579 5584 5588 5590 5595
5462 5454 5444 5434 5426 5417 5411 5408 5407 5408 5411 5413 5418 5423 5430 5437 5444 5451 5458 5465 5474 5485 5496 5506 5513 5522 5529 5537 5542 5549 5555 5559 5563 5568 5572 5574 5574 5575 5579 5586 5588 5592 5597
5472 5464 5455 5446 5438 5432 5424 5420 5418 5418 5418 5420 5423 5426 5432 5440 5448 5453 5459 5467 5476 5487 5497 5506 5514 5522 5529 5536 5543 5550 5555 5558 5562 5566 5568 5570 5572 5575 5580 5585 5589 5594 5597